Flag for China Weather past 2 weeks in Nanning, Guangxi, China

Now
91 °F

Scattered clouds.


Feels Like: 103 °F
Forecast: 79 / 98 °F
Wind: 3 mph from North

Location: Nanning Airport

Current Time: Jul 10, 2014 at 12:28:56 PM

Latest Report: Jul 10, 2014 at 12:00 PM


Visibility: N/A

Pressure: 29.65 "Hg

Humidity: 59%

Dew point: 75 °F

Location of NanningLocation

Historic Weather in Nanning — Graph

°F

Nanning temperature yesterday

Maximum temperature yesterday: 91 °F (at 4:00 PM)
Minimum temperature yesterday: 81 °F (at 3:00 AM)
Average temperature yesterday: 85 °F

Past Weeks' High & Low Weather Summary

 TemperatureHumidityPressure
High97 °F (Jul 8, 4:00 PM)100% (Jul 1, 3:00 AM)29.77 "Hg (Jul 1, 3:00 AM)
Low77 °F (Jul 1, 3:00 AM)44% (Jul 8, 4:00 PM)29.45 "Hg (Jul 8, 5:00 PM)
Average84 °F80%29.63 "Hg
* Reported Jun 25 11:00 AM — Jul 10 11:00 AM, Nanning, Weather by CustomWeather, © 2014

Note: Actual official high and low records may vary slightly from our data, if they occured in-between our weather recording intervals... More about our weather records

Advertising

Nanning weather history for previous 24 hours

 ConditionsComfort  
Time TempWeatherWind HumidityBarometerVisibility
11:00 AM
Jul 10
90 °FScattered clouds.1 mph63%29.65 "HgN/A
10:00 AM88 °FScattered clouds.1 mph70%29.65 "HgN/A
9:00 AM86 °FScattered clouds.1 mph75%29.65 "HgN/A
8:00 AM82 °FBroken clouds.1 mph89%29.65 "Hg4 mi
7:00 AM81 °FFog.1 mph94%29.62 "Hg3 mi
6:00 AM81 °FFog.3 mph94%29.62 "Hg3 mi
5:00 AM81 °FPassing clouds.6 mph89%29.62 "Hg4 mi
4:00 AM81 °FClear.3 mph89%29.59 "Hg10 mi
3:00 AM81 °FClear.1 mph94%29.62 "Hg10 mi
2:00 AM81 °FClear.1 mph94%29.62 "Hg10 mi
1:00 AM81 °FClear.3 mph94%29.65 "Hg10 mi
12:00 AM82 °FClear.3 mph89%29.65 "Hg10 mi
11:00 PM
Jul 9
82 °FPassing clouds.3 mph89%29.62 "HgN/A
10:00 PM84 °FPassing clouds.3 mph84%29.62 "HgN/A
9:00 PM84 °FClear.6 mph79%29.59 "Hg10 mi
8:00 PM86 °FClear.3 mph75%29.56 "Hg10 mi
7:00 PM90 °FSunny.6 mph67%29.53 "Hg10 mi
6:00 PM91 °FPassing clouds.8 mph63%29.50 "HgN/A
5:00 PM91 °FScattered clouds.6 mph63%29.50 "HgN/A
4:00 PM91 °FPassing clouds.1 mph63%29.53 "HgN/A
3:00 PM90 °FScattered clouds.6 mph71%29.56 "HgN/A
2:00 PM88 °FScattered clouds.8 mph75%29.56 "HgN/A
12:00 PM88 °FScattered clouds.1 mph70%29.59 "HgN/A
Weather by CustomWeather, © 2014

See weather overviewHow to use our weather pages